Location: Hohenfelde
(53.8441°N, 9.6220°E)
Time: 11:21:33
(UTC+00:00)

Cosmos 1725 Rocket - Pass Details

Date: 14 July 2020
Orbit: 963 x 990 km, 82.9° (Epoch: 12 August)

Event Time Altitude Azimuth Distance (km) Brightness Sun altitude
Exits shadow 01:21:06 10° 183° (S) 2,674 5.7 -10.6°
Maximum altitude 01:27:13 79° 97° (E) 997 4.1 -10.2°
Drops below altitude 10° 01:33:30 10° 13° (NNE) 2,743 7.7 -9.8°
Sets 01:36:02 0° 12° (NNE) 3,699 8.7 -9.6°
